Regional Weather Roundup
Issued by NWS

Home | Current Version | Previous Version | Text Only | Print | Product List | Glossary Off
Versions: 1 2 3 4 5 6 7 8 9 10 11 12 13 14 15 16 17 18 19 20 21 22 23 24 25 26 27 28 29 30 31 32 33 34 35 36 37 38 39 40 41 42 43 44 45 46 47 48 49 50

000
ASUS43 KBIS 021310
RWRND

NORTH DAKOTA REGIONAL WEATHER ROUNDUP
NATIONAL WEATHER SERVICE BISMARCK ND
700 AM CST MON MAR 02 2015

NOTE: "FAIR" INDICATES FEW OR NO CLOUDS BELOW 12,000 FEET WITH NO
SIGNIFICANT WEATHER AND/OR OBSTRUCTIONS TO VISIBILITY.


NDZ001>003-009>011-017-021400-
NORTHWEST NORTH DAKOTA

CITY           SKY/WX    TMP DP  RH WIND       PRES   REMARKS
WILLISTON      PTCLDY    13   5  70 S3        30.01F
MINOT          PTCLDY     6   0  76 SE8       30.11F WCI  -7
MINOT AFB      PTCLDY     8   3  81 S14       30.11F WCI  -9
$$

NDZ018>021-031>035-040>046-021400-
SOUTHWEST NORTH DAKOTA

CITY           SKY/WX    TMP DP  RH WIND       PRES   REMARKS
BISMARCK       PTCLDY     9   6  88 S12       30.21F WCI  -6
DICKINSON      PTCLDY    12   6  77 S15       30.01F WCI  -4
GARRISON         N/A      8   4  83 SE8       30.12F WCI  -4
HETTINGER ARPT CLEAR     13   7  77 SE13      30.07F WCI  -2
$$

NDZ004>008-012>016-024-026-027-054-021400-
NORTHEAST NORTH DAKOTA

CITY           SKY/WX    TMP DP  RH WIND       PRES   REMARKS
GRAND FORKS    MOCLDY    -1  -6  79 S5        30.30F WCI -11
GRND FRKS AFB  PTCLDY     2  -3  79 S5        30.29F WCI  -7
DEVILS LAKE    PTCLDY     1  -8  66 S5        30.22F WCI  -8
$$

NDZ022-023-025-028>030-036>039-047>053-021400-
SOUTHEAST NORTH DAKOTA

CITY           SKY/WX    TMP DP  RH WIND       PRES   REMARKS
FARGO          PTCLDY     4  -1  80 S7        30.37S WCI  -8
JAMESTOWN      MOCLDY    -3  -7  82 S8        30.26F WCI -18
$$




USA.gov is the U.S. government's official web portal to all federal, state and local government web resources and services.